Regional Weather Roundup
Issued by NWS

Home | Current Version | Previous Version | Graphics & Text | Print | Product List | Glossary On
Versions: 1 2 3 4 5 6 7 8 9 10 11 12 13 14 15 16 17 18 19 20 21 22 23 24 25 26 27 28 29 30 31 32 33 34 35 36 37 38 39 40 41 42 43 44 45 46 47 48 49 50
000
ASUS43 KMKX 232221
RWRWI

WISCONSIN REGIONAL WEATHER ROUNDUP
NATIONAL WEATHER SERVICE MILWAUKEE/SULLIVAN WI
400 PM CST THU NOV 23 2017

NOTE: "FAIR" INDICATES FEW OR NO CLOUDS BELOW 12,000 FEET WITH NO
SIGNIFICANT WEATHER AND/OR OBSTRUCTIONS TO VISIBILITY.

WIZ001-002-006>008-014>016-023>028-232300-
NORTHWEST WISCONSIN

CITY           SKY/WX    TMP DP  RH WIND       PRES   REMARKS
SUPERIOR ARPT  CLOUDY    39  25  57 S3        29.76F
ASHLAND        CLEAR     39  22  50 S9        29.78F WCI  33
HAYWARD        CLEAR     39  22  50 S9        29.78F WCI  33
SIREN          MOCLDY    39  23  52 SW6       29.79F WCI  35
CUMBERLAND     CLEAR     37  23  56 SW8       29.81S WCI  31
RICE LAKE      CLEAR     40  23  49 SW6       29.83S
CHETEK         CLEAR     40  23  50 S6        29.82F
LADYSMITH      CLEAR     38  22  53 S3        29.80F
EAU CLAIRE     CLEAR     41  20  43 S5        29.82F
MENOMONIE      CLEAR     40  21  47 S6        29.83F
NEW RICHMOND   CLEAR     40  21  46 S7        29.82F
OSCEOLA        PTCLDY    40  24  52 S6        29.84S
$$

WIZ003>005-009-010-017-018-232300-
NORTH CENTRAL WISCONSIN

CITY           SKY/WX    TMP DP  RH WIND       PRES   REMARKS
MANITOWISH WTR CLEAR     36  23  60 SW5       29.77F WCI  32
ARBOR VITAE    CLEAR     38  25  59 SW5       29.78F WCI  34
WOODRUFF       CLEAR     38  25  59 SW5       29.78F WCI  34
RHINELANDER    CLEAR     37  24  59 SW6       29.80F WCI  32
EAGLE RIVER    CLEAR     36  21  55 SW3       29.77F
LAND O LAKES   CLEAR     37  22  56 S3        29.78F
PHILLIPS       CLEAR     36  23  59 SW5       29.78F WCI  32
TOMAHAWK       CLEAR     37  22  54 CALM      29.81S
MEDFORD        CLEAR     37  22  55 SW5       29.82S WCI  33
MERRILL        CLEAR     38  22  53 SW6       29.83S WCI  33
$$

WIZ029-030-035-036-043>047-232300-
CENTRAL WISCONSIN

CITY           SKY/WX    TMP DP  RH WIND       PRES   REMARKS
WAUSAU         CLEAR     38  22  52 SW3       29.82F
MOSINEE        PTCLDY    37  21  52 SW5       29.85S WCI  34
MARSHFIELD     CLEAR     39  20  46 W5        29.84S
STEVENS POINT  CLEAR     39  20  47 SW3       29.85F
WAUPACA        CLEAR     42  21  42 SW3       29.86F
WAUTOMA        CLEAR     42  21  43 W3        29.87F
WISC RAPIDS    CLEAR     42  21  43 CALM      29.86S
CAMP DOUGLAS   CLEAR     44  21  39 CALM      29.87R
$$

WIZ011>013-019>022-031-037>040-048>050-232300-
NORTHEAST WISCONSIN

CITY           SKY/WX    TMP DP  RH WIND       PRES   REMARKS
ANTIGO         CLEAR     35  23  61 SW6       29.82S WCI  30
SHAWANO        CLEAR     41  20  43 CALM      29.84F
OCONTO         CLEAR     39  20  47 SW3       29.86S
STURGEON BAY   CLEAR     37  21  52 SW6       29.87R WCI  32
GREEN BAY      CLEAR     40  23  50 SW3       29.87S
MANITOWOC      CLEAR     39  21  48 W6        29.90R WCI  35
APPLETON       PTCLDY    39  18  41 SW5       29.86R
CLINTONVILLE   CLEAR     39  19  45 SW6       29.86S WCI  35
OSHKOSH        CLEAR     40  22  48 SW3       29.88R
$$

WIZ032>034-041-042-053>061-232300-
SOUTHWEST WISCONSIN

CITY           SKY/WX    TMP DP  RH WIND       PRES   REMARKS
LA CROSSE      CLEAR     44  23  43 SE7       29.86F
SPARTA         CLEAR     42  23  47 W5        29.88S
VIROQUA        CLEAR     41  25  53 S5        29.86S
BOSCOBEL       CLEAR     47  23  38 SW3       29.90R
PRAIRIE DU CHI CLEAR     46  22  38 CALM      29.89S
PLATTEVILLE    CLEAR     44  27  51 SW6       29.91R
$$

WIZ056-057-062-063-064-067-068-232300-
SOUTH CENTRAL WISCONSIN

CITY           SKY/WX    TMP DP  RH WIND       PRES   REMARKS
REEDSBURG      CLEAR     42  23  46 S3        29.87F
BARABOO/DELLS  CLEAR     42  22  45 SW3       29.87F
LONE ROCK      NOT AVBL
MINERAL POINT  CLEAR     45  27  49 SW3       29.89S
MADISON        CLEAR     43  23  45 CALM      29.89S
MIDDLETON      CLEAR     44  25  47 NW5       29.89S
WATERTOWN      CLEAR     41  23  49 CALM      29.89S
MONROE         CLEAR     43  25  49 W5        29.89F
JANESVILLE     CLEAR     45  25  45 W7        29.90R
$$

WIZ051-052-058>065-066-070>072-232300-
SOUTHEAST WISCONSIN

CITY           SKY/WX    TMP DP  RH WIND       PRES   REMARKS
MILWAUKEE      PTCLDY    44  23  43 SW10      29.91R
WAUKESHA       CLEAR     39  21  48 W8        29.91R WCI  34
MILWAUKEE/TIMM CLEAR     43  18  36 W6        29.91R
RACINE         CLEAR     43  24  47 W7        29.92R
BURLINGTON     CLEAR     44  29  57 W5        29.91R
KENOSHA        CLEAR     42  24  49 W8        29.91R
FOND DU LAC    CLEAR     41  20  43 SW3       29.89R
SHEBOYGAN      CLEAR     39  24  55 W6        29.89R WCI  35
WEST BEND      CLEAR     39  21  48 W7        29.89R WCI  34
JUNEAU         CLEAR     39  23  51 SW5       29.90S
$$

LSZ147-162-232300-
LAKE SUPERIOR

STATION/POSITION TIME  TEMP    WIND        PRES    WAVE
                       AIR SEA DIR/SP/G            HT/PER
                 (UTC) (F)     (DEG/KT/KT) (MB)    (FT/S)
DEVILS ISLAND    2200   36     250/  6/  8 1009.1F
SAXON HARBOR     2130   40     200/  4/  6 1008.5S
$$

LMZ867-665-643>646-232300-
LAKE MICHIGAN

STATION/POSITION TIME  TEMP    WIND        PRES    WAVE
                       AIR SEA DIR/SP/G            HT/PER
                 (UTC) (F)     (DEG/KT/KT) (MB)    (FT/S)
N MID LAKE BUOY  2150   38 47  240/ 12/ 14 1012.4R   3/ 6
NORTHPORT PIER   2200   37     180/  2/ 13 1010.8
KEWAUNEE LAKESHO 2154   41     270/  4/  6 1011.0R
SHEBOYGAN LAKESH 2200   42     250/  6/  7 1012.5R
PORT WASHINGTON  2140   44     260/  6/  8 1013.2R
MILWAUKEE LAKESH 2200   44     260/  7/  9   N/A
S MID LAKE BUOY  2150   42 47  250/ 10/ 12 1013.4F   3/ 5
KENOSHA   LAKESH 2200   44     260/  6/ 10 1012.9
$$

TC  - TEMPERATURE IN CELSIUS
VSB - VISIBILITY IN STATUTE MILES
WCI - WIND CHILL INDEX
HX  - HEAT INDEX




USA.gov is the U.S. government's official web portal to all federal, state and local government web resources and services.